RCH56S KEDW-KOFF

Flight info

Callsign RCH56S
Flight time N/A
Altitude 41000
Route HELDE BLD Q114 ZAINY Q74 GARDD Q88 ZAKRY Q114 AYOLE GRI HOWRY3
Aircraft B748/H-SDE3FGHIM1M2RWXY/LB1

Departure

Time 2026-05-07 20:09
Airport Edwards Air Force Base (KEDW)

Arrival

Time N/A
Airport Offutt Air Force Base (KOFF)
Time Latitude Longitude Altitude Speed Heading
2026-05-07 19:55 34.91480 -117.89514 2315 ft 0 kts 331°
2026-05-07 20:02 34.91484 -117.89517 2324 ft 5 kts 332°
2026-05-07 20:02 34.91515 -117.89505 2322 ft 6 kts 54°
2026-05-07 20:02 34.91564 -117.89422 2316 ft 17 kts 54°
2026-05-07 20:02 34.91638 -117.89273 2317 ft 22 kts 81°
2026-05-07 20:03 34.91542 -117.89134 2318 ft 24 kts 148°
2026-05-07 20:03 34.91382 -117.89013 2319 ft 30 kts 148°
2026-05-07 20:03 34.91189 -117.88872 2317 ft 35 kts 149°
2026-05-07 20:03 34.90966 -117.88708 2319 ft 40 kts 149°
2026-05-07 20:04 34.90714 -117.88517 2313 ft 44 kts 145°
2026-05-07 20:04 34.90504 -117.88274 2316 ft 40 kts 123°
2026-05-07 20:04 34.90376 -117.87999 2318 ft 35 kts 118°
2026-05-07 20:04 34.90268 -117.87758 2318 ft 31 kts 118°
2026-05-07 20:05 34.90240 -117.87541 2308 ft 23 kts 81°
2026-05-07 20:05 34.90203 -117.87411 2314 ft 15 kts 160°
2026-05-07 20:05 34.90099 -117.87387 2317 ft 14 kts 188°
2026-05-07 20:05 34.89993 -117.87445 2319 ft 18 kts 194°
2026-05-07 20:06 34.89862 -117.87412 2314 ft 20 kts 162°
2026-05-07 20:06 34.89843 -117.87317 2318 ft 17 kts 83°
2026-05-07 20:06 34.89859 -117.87143 2318 ft 24 kts 77°
2026-05-07 20:06 34.89898 -117.86924 2319 ft 28 kts 78°
2026-05-07 20:07 34.89941 -117.86681 2315 ft 31 kts 76°
2026-05-07 20:07 34.89990 -117.86416 2318 ft 34 kts 78°
2026-05-07 20:07 34.90046 -117.86128 2318 ft 36 kts 78°
2026-05-07 20:07 34.90073 -117.85826 2318 ft 34 kts 85°
2026-05-07 20:08 34.90060 -117.85651 2316 ft 10 kts 162°
2026-05-07 20:08 34.89966 -117.85635 2312 ft 13 kts 177°
2026-05-07 20:08 34.89933 -117.85707 2316 ft 27 kts 255°
2026-05-07 20:08 34.89835 -117.86224 2317 ft 97 kts 258°
2026-05-07 20:09 34.89635 -117.87285 2319 ft 158 kts 254°
2026-05-07 20:09 34.89342 -117.88782 2515 ft 199 kts 255°
2026-05-07 20:09 34.88994 -117.90453 3388 ft 207 kts 245°
2026-05-07 20:10 34.86502 -117.91909 4962 ft 242 kts 171°
2026-05-07 20:10 34.84904 -117.91028 5643 ft 268 kts 140°
2026-05-07 20:10 34.83750 -117.89168 6525 ft 286 kts 111°
2026-05-07 20:10 34.83236 -117.86797 7566 ft 293 kts 100°
2026-05-07 20:11 34.82895 -117.84317 8703 ft 299 kts 97°
2026-05-07 20:11 34.82598 -117.81805 9963 ft 301 kts 96°
2026-05-07 20:11 34.82320 -117.79270 10997 ft 309 kts 96°
2026-05-07 20:11 34.82037 -117.76615 11889 ft 319 kts 96°
2026-05-07 20:12 34.81755 -117.73920 13038 ft 323 kts 96°
2026-05-07 20:12 34.81470 -117.71189 14126 ft 327 kts 96°
2026-05-07 20:12 34.81181 -117.68429 15117 ft 331 kts 96°
2026-05-07 20:12 34.80865 -117.65638 16091 ft 335 kts 96°
2026-05-07 20:13 34.80454 -117.62828 17038 ft 342 kts 103°
2026-05-07 20:13 34.79635 -117.60081 17996 ft 349 kts 112°
2026-05-07 20:13 34.78537 -117.57419 18866 ft 355 kts 115°
2026-05-07 20:13 34.77358 -117.54790 19678 ft 361 kts 116°
2026-05-07 20:14 34.76138 -117.52102 20488 ft 366 kts 115°
2026-05-07 20:14 34.74974 -117.49328 21310 ft 371 kts 113°
2026-05-07 20:14 34.73860 -117.46482 22116 ft 376 kts 113°
2026-05-07 20:14 34.72695 -117.43607 22922 ft 381 kts 114°
2026-05-07 20:15 34.71766 -117.40598 23660 ft 382 kts 96°
2026-05-07 20:15 34.71737 -117.37392 24336 ft 380 kts 76°
2026-05-07 20:15 34.72599 -117.34365 24995 ft 379 kts 62°
2026-05-07 20:15 34.73833 -117.31511 25639 ft 383 kts 57°
2026-05-07 20:16 34.75260 -117.28761 26291 ft 387 kts 54°
2026-05-07 20:16 34.76767 -117.26036 26927 ft 390 kts 53°
2026-05-07 20:16 34.78315 -117.23300 27552 ft 394 kts 53°
2026-05-07 20:16 34.79868 -117.20536 28189 ft 398 kts 54°
2026-05-07 20:17 34.81386 -117.17697 28798 ft 402 kts 55°
2026-05-07 20:17 34.82893 -117.14803 29403 ft 406 kts 56°
2026-05-07 20:17 34.84389 -117.11909 29982 ft 410 kts 56°
2026-05-07 20:17 34.85913 -117.08961 30540 ft 413 kts 56°
2026-05-07 20:18 34.87464 -117.05991 31072 ft 416 kts 55°
2026-05-07 20:18 34.89057 -117.03037 31597 ft 419 kts 55°
2026-05-07 20:18 34.90640 -117.00039 32112 ft 422 kts 56°
2026-05-07 20:18 34.92220 -116.97009 32610 ft 425 kts 56°
2026-05-07 20:19 34.93804 -116.93957 33096 ft 428 kts 56°
2026-05-07 20:19 34.95405 -116.90875 33585 ft 431 kts 56°
2026-05-07 20:19 34.97044 -116.87803 34033 ft 435 kts 55°
2026-05-07 20:19 34.98677 -116.84704 34617 ft 431 kts 56°
2026-05-07 20:20 35.00273 -116.81632 35292 ft 428 kts 56°
2026-05-07 20:20 35.01866 -116.78553 35688 ft 430 kts 56°
2026-05-07 20:20 35.03472 -116.75451 36072 ft 433 kts 56°
2026-05-07 20:20 35.05118 -116.72358 36430 ft 435 kts 56°
2026-05-07 20:21 35.06759 -116.69230 36779 ft 438 kts 56°
2026-05-07 20:21 35.08392 -116.66077 37140 ft 441 kts 56°
2026-05-07 20:21 35.10013 -116.62933 37493 ft 443 kts 56°
2026-05-07 20:21 35.11659 -116.59737 37850 ft 446 kts 56°
2026-05-07 20:22 35.13342 -116.56536 38214 ft 448 kts 56°
2026-05-07 20:22 35.15028 -116.53323 38559 ft 451 kts 56°
2026-05-07 20:22 35.16713 -116.50067 38861 ft 454 kts 57°
2026-05-07 20:22 35.18400 -116.46781 39107 ft 457 kts 57°
2026-05-07 20:23 35.20094 -116.43478 39337 ft 460 kts 56°
2026-05-07 20:23 35.21805 -116.40152 39579 ft 463 kts 56°
2026-05-07 20:23 35.23555 -116.36832 39802 ft 466 kts 56°
2026-05-07 20:23 35.25305 -116.33461 40032 ft 470 kts 56°
2026-05-07 20:24 35.27051 -116.30065 40268 ft 473 kts 56°
2026-05-07 20:24 35.28802 -116.26642 40483 ft 476 kts 56°
2026-05-07 20:24 35.30568 -116.23188 40719 ft 479 kts 56°
2026-05-07 20:24 35.32319 -116.19765 40927 ft 482 kts 56°
2026-05-07 20:25 35.34117 -116.16262 40976 ft 489 kts 56°
2026-05-07 20:25 35.37788 -116.09116 40990 ft 500 kts 56°
2026-05-07 20:26 35.41504 -116.01859 41003 ft 503 kts 56°
2026-05-07 20:26 35.45214 -115.94589 41002 ft 503 kts 56°
2026-05-07 20:27 35.48922 -115.87309 41016 ft 503 kts 56°
2026-05-07 20:27 35.52625 -115.80022 41023 ft 503 kts 56°
2026-05-07 20:28 35.56303 -115.72773 41028 ft 503 kts 57°
2026-05-07 20:28 35.59992 -115.65484 41031 ft 501 kts 57°
2026-05-07 20:29 35.63669 -115.58206 41041 ft 501 kts 57°
2026-05-07 20:29 35.67335 -115.50934 41048 ft 501 kts 57°
2026-05-07 20:30 35.71004 -115.43639 41051 ft 501 kts 57°
2026-05-07 20:30 35.74666 -115.36345 41050 ft 501 kts 57°
2026-05-07 20:31 35.78327 -115.29034 41058 ft 502 kts 57°